Location: Basarán
(42.5449°N, 0.2090°W)
Time: 21:00:29
(UTC+00:00)

Daily predictions for brighter satellites

Satellite Brightness Start Highest point End
(mag) Time Altitude Azimuth Time Altitude Azimuth Time Altitude Azimuth
Cosmos 2333 4.3 18:32:28 10° NNW 18:38:16 71° ENE 18:44:01 10° SSE
Cosmos 2237 Rocket 4.0 18:35:51 10° NNE 18:38:56 15° NE 18:42:01 10° ENE
Exosat Rocket 3.8 18:34:05 10° S 18:38:58 53° ESE 18:44:55 10° NNE
Cosmos 1842 3.2 18:35:30 10° N 18:39:17 64° E 18:43:02 10° SSE
USA 307 2.7 18:36:33 10° NW 18:40:23 85° SW 18:44:12 10° SE
Cosmos 2251 Rocket 4.4 18:36:44 10° NNW 18:41:52 55° WSW 18:46:56 10° S
Meteor 1-11 Rocket 4.4 18:36:29 10° SSW 18:42:22 66° WNW 18:48:11 10° N
USA 186 3.6 18:41:40 10° E 18:43:20 14° ENE 18:45:01 10° NE
Cosmos 1190 Rocket 4.0 18:38:43 10° NNW 18:43:56 70° ENE 18:49:07 10° SSE
FALCON 9 R/B 4.0 18:40:59 10° SSW 18:44:34 20° SSE 18:52:51 10° ESE
Okean 3 3.7 18:45:50 10° N 18:49:54 46° ENE 18:53:58 10° SSE
Cosmos 1140 Rocket 4.5 18:45:10 10° NNW 18:50:12 52° WSW 18:55:14 10° S
COSMO-SKYMED 1 4.4 18:47:42 10° N 18:51:42 37° WNW 18:55:42 10° SW
CZ-4B R/B 3.3 18:46:52 10° SSE 18:52:29 66° ENE 18:58:05 10° N
Cosmos 1727 Rocket 4.1 18:47:18 10° S 18:53:38 86° E 18:59:57 10° N
Cosmos 1707 2.7 18:51:15 10° N 18:55:00 56° E 18:58:43 10° SSE
Cosmos 2322 3.9 18:50:09 10° NNW 18:55:43 55° ENE 19:01:14 10° SE
Lacrosse 5 rocket 2.8 18:52:58 10° SSE 18:56:01 19° ESE 18:59:00 10° ENE
Okean 1-7 3.1 18:52:13 10° N 18:56:31 54° E 19:00:45 10° SSE
Cosmos 1954 Rocket 4.0 18:51:48 10° NNW 18:57:01 63° ENE 19:02:13 10° SSE
Cosmos 1674 2.8 18:55:47 10° N 18:59:24 49° E 19:03:01 10° SSE
Cosmos 1933 Rocket 3.5 18:56:40 10° S 19:00:54 61° E 19:05:11 10° NNE
Cosmos 1975 3.0 18:57:16 10° SSE 19:01:02 45° E 19:04:50 10° NNE
SJ-6B 3.5 18:58:27 10° SE 19:02:01 34° ENE 19:05:32 10° N
Cosmos 2219 Rocket 2.2 18:56:41 10° NNW 19:02:24 79° ENE 19:08:05 10° SSE
Cosmos 2333 Rocket 2.6 18:58:39 10° NNW 19:04:24 69° WSW 19:10:05 10° SSE
Meteor 2-9 Rocket 4.3 18:59:24 10° SSW 19:04:57 81° W 19:10:22 10° N
Cosmos 1726 3.2 19:03:28 10° SE 19:06:11 21° E 19:08:55 10° NE
SL-8 R/B 3.8 19:01:57 10° WNW 19:06:45 79° SSW 19:11:06 13° SE
USA 308 3.4 19:03:18 10° WNW 19:06:55 49° SW 19:10:31 10° SSE
MOS 1-B 4.4 19:01:53 10° SSE 19:07:42 90° ESE 19:13:32 10° NNW
USA 267 3.5 19:03:19 10° SE 19:09:53 73° SW 19:16:28 10° NW
Cosmos 1869 Rocket 4.0 19:06:36 10° SSE 19:10:34 38° E 19:14:36 10° NNE
Cosmos 1900 4.3 19:06:12 10° SSW 19:11:10 86° ESE 19:16:07 10° NNE
BREEZE-M DEB (TANK) 2.0 19:07:48 10° WNW 19:12:12 69° SW 19:13:55 17° SE
COSMOS 2428 2.8 19:09:48 10° NNW 19:15:29 60° ENE 19:21:09 10° SE
SL-14 R/B 4.3 19:14:41 10° NNE 19:17:54 25° ENE 19:19:24 19° ESE
Cosmos 2297 Rocket 3.0 19:13:59 10° SSE 19:18:39 27° ESE 19:23:20 10° NE
Cosmos 1459 Rocket 3.9 19:14:51 10° N 19:20:56 83° E 19:27:01 10° S
Cosmos 1867 3.8 19:16:59 10° S 19:22:07 45° ESE 19:27:18 10° NE
USA 281 4.0 19:16:28 10° NNE 19:22:50 55° WNW 19:29:12 10° SW
NOSS 3-2 (A) 4.2 19:15:23 10° NNW 19:22:53 65° NE 19:30:28 14° SE
IGS 5A 3.4 19:20:54 10° SSE 19:25:01 87° WSW 19:29:10 10° NNW
Resurs 01 Rocket 2.8 19:25:55 20° E 19:27:13 23° ENE 19:30:43 10° NNE
Cosmos 1733 3.1 19:27:00 10° S 19:30:42 62° E 19:34:26 10° NNE
Cosmos 1725 Rocket 4.0 19:24:40 10° N 19:30:48 62° E 19:36:54 10° SSE
Landsat 7 3.8 19:27:14 10° SSE 19:31:53 65° ENE 19:36:34 10° N
NOSS 3-2 (C) 4.5 19:26:09 10° NNW 19:33:18 47° NE 19:38:47 21° ESE
CENTAUR R/B 3.3 19:25:09 10° NW 19:33:30 77° NE 19:41:25 15° SE
Cosmos 2360 Rocket 4.4 19:29:35 10° NW 19:34:12 26° WSW 19:38:46 10° SSW
Cosmos 1626 3.4 19:30:55 10° NNW 19:34:18 41° W 19:37:38 10° SSW
Cosmos 2227 Rocket 3.3 19:30:17 10° SSE 19:35:03 22° E 19:38:48 10° NE
CZ-4 R/B 2.3 19:32:18 10° S 19:36:00 48° W 19:39:46 10° NNW
Cosmos 1818 3.8 19:31:16 10° NW 19:36:43 72° WSW 19:41:45 12° SSE
Cosmos 1703 Rocket 4.1 19:34:25 10° NNW 19:38:49 61° W 19:43:08 10° S
Cosmos 192 4.3 19:35:37 10° SSW 19:40:34 84° ESE 19:45:33 10° NNE
Cosmos 2098 Rocket 3.7 19:35:33 10° S 19:40:42 89° E 19:47:04 10° N
Resurs 1-3 3.5 19:40:28 13° SSE 19:44:22 78° ENE 19:48:45 10° N
Iridium 4 Rocket 2.8 19:40:17 10° N 19:44:27 71° E 19:48:24 11° S
USA 238 DEB 4.4 19:39:55 10° NNW 19:46:53 44° NE 19:50:50 26° E
USA 238 4.4 19:40:02 10° NNW 19:46:59 44° NE 19:50:55 26° E
Cosmos 1802 Rocket 4.1 19:41:02 10° N 19:47:18 79° W 19:53:37 10° S
SL-16 R/B 3.9 19:44:54 10° N 19:48:32 17° NE 19:49:39 16° ENE
Meteor 2-10 3.9 19:46:55 10° S 19:51:57 90° W 19:57:03 10° N
Cosmos 1733 Rocket 3.5 19:53:01 37° E 19:53:01 37° E 19:56:46 10° NNE
Cosmos 1850 Rocket 4.0 19:49:16 10° NNW 19:54:36 69° ENE 19:57:18 29° SE
Okean-O 2.5 19:52:20 28° SSE 19:54:38 70° ENE 19:59:02 10° N
SPOT 1/Viking Rocket 3.6 19:55:57 31° SE 19:58:20 59° ENE 20:03:28 10° N
Cosmos 1110 Rocket 3.8 19:54:15 10° SSW 19:59:26 74° ESE 20:04:37 10° NNE
Okean 2 3.3 19:56:02 10° N 20:00:08 85° W 20:02:15 27° S
Cosmos 2016 Rocket 4.1 19:54:29 10° N 20:00:35 75° W 20:06:41 10° S
Cosmos 2123 Rocket 4.3 19:55:02 10° SSW 20:01:16 68° W 20:07:36 10° N
NOSS 0 Rocket 3.8 19:55:18 10° NNW 20:01:32 86° ENE 20:05:06 27° SSE
Okean O Rocket 3.3 19:59:00 10° SSW 20:02:59 33° W 20:06:59 10° NNW
SL-4 R/B 3.6 20:00:06 10° SSW 20:02:29 24° S 20:02:29 24° S
Cosmos 2221 Rocket 4.4 20:02:06 10° N 20:05:26 33° NE 20:05:26 33° NE
BREEZE-M DEB (TANK) 3.9 20:02:41 10° WNW 20:07:39 31° N 20:08:22 28° NNE
ISS -1.5 20:05:40 10° NW 20:07:58 17° N 20:08:42 16° NNE
Cosmos 2242 Rocket 4.4 20:04:24 10° NNW 20:08:51 52° W 20:13:14 10° S
CSL-04 Rocket 4.0 20:05:45 10° S 20:11:16 67° WSW 20:16:48 10° NNW
Cosmos 1447 Rocket 4.4 20:08:04 10° S 20:14:14 67° E 20:20:22 10° NNE
Cosmos 1452 Rocket 4.0 20:09:19 10° SSW 20:14:31 61° WNW 20:19:46 10° NNE
USA 186 3.8 20:13:23 16° SW 20:15:10 26° W 20:17:51 10° NW
ADEOS Rocket 4.4 20:15:26 23° ENE 20:15:49 23° ENE 20:20:57 10° N
Cosmos 1766 4.2 20:17:38 36° NNE 20:17:38 36° NNE 20:19:58 10° NNE
Cosmos 1331 Rocket 3.9 20:11:16 10° SSW 20:16:24 86° WNW 20:21:36 10° NNE
H-2A R/B 4.1 20:23:55 24° NNE 20:23:55 24° NNE 20:26:16 10° N
Cosmos 2237 Rocket 2.0 20:18:17 10° NNW 20:23:57 80° ENE 20:25:11 56° SE
MetOp-B 4.4 20:29:53 50° ENE 20:29:53 50° ENE 20:34:50 10° N
Cosmos 1741 Rocket 4.4 20:28:09 10° NNW 20:33:16 58° WSW 20:35:01 38° SSW
IRS-1C Rocket 4.4 20:31:12 33° S 20:33:28 64° WSW 20:38:44 10° NNW
Lacrosse 5 rocket 1.7 20:30:18 10° WSW 20:34:34 61° NW 20:34:35 61° NW
Cosmos 968 Rocket 3.5 20:32:40 10° NNW 20:37:26 64° NE 20:37:26 64° NE
Meteor 1-12 Rocket 4.2 20:38:17 64° ENE 20:38:17 64° ENE 20:43:40 10° NNE
SJ 16-02 3.8 20:35:44 10° NNE 20:36:14 12° NNE 20:36:14 12° NNE
ERS-1 Rocket 4.4 20:44:49 25° NNE 20:44:49 25° NNE 20:47:26 10° N
FALCON 9 R/B 3.4 20:22:13 10° W 20:43:23 55° S 20:45:16 47° SSE
Cosmos 1980 3.9 20:39:36 10° NNW 20:45:14 66° WSW 20:46:16 54° SSW
Cosmos 1513 Rocket 4.4 20:41:58 10° N 20:47:45 64° ENE 20:47:45 64° ENE
Meteor 1-24 Rocket 4.3 20:42:22 10° N 20:47:16 48° NE 20:47:16 48° NE
Ariane Rocket 3.6 20:49:52 47° NNE 20:49:52 47° NNE 20:53:39 10° N
NOSS 3-4 (A) 4.4 20:44:09 10° SSW 20:55:36 11° NE 20:55:43 10° NE
BREEZE-M DEB (TANK) 3.7 20:44:44 10° WNW 20:50:30 45° NNE 20:50:43 44° NNE
Cosmos 2297 Rocket 3.2 20:57:04 10° SW 21:02:26 44° WNW 21:07:50 10° NNE
Resurs 01 Rocket 3.0 21:03:27 34° W 21:03:30 34° W 21:07:33 10° NNW
IRS-1A Rocket 4.5 21:03:44 67° SW 21:04:09 69° WSW 21:10:02 10° NNW
Meteor 2-5 Rocket 4.1 21:09:44 10° N 21:14:30 62° NNW 21:14:30 62° NNW
Cosmos 2227 Rocket 2.8 21:12:37 10° SW 21:18:08 54° WNW 21:23:42 10° NNE
Terra 3.8 21:21:29 22° N 21:21:29 22° N 21:23:12 10° N
CZ-4C R/B 3.4 21:15:10 10° NNW 21:21:59 48° NE 21:21:59 48° NE
SL-16 R/B 3.1 21:27:43 10° NNW 21:31:32 44° NNW 21:31:32 44° NNW
USA 238 DEB 4.4 21:30:54 10° NW 21:38:02 50° WSW 21:38:18 50° SW
USA 238 4.4 21:31:00 10° NW 21:38:08 50° WSW 21:38:23 50° WSW
ADEOS Rocket 3.9 22:02:22 48° NW 22:02:22 48° NW 22:07:24 10° NNW
ATLAS 3B R/B 4.2 23:00:30 10° NNW 23:04:56 34° N 23:04:56 34° N
CZ-4C R/B 4.4 23:03:38 10° NW 23:07:09 30° WNW 23:07:09 30° WNW
Cosmos 2344 4.5 23:12:07 10° NNW 23:18:50 57° N 23:18:50 57° N
